Weather History for KLOL - February, 2013

Change the Weather History Date:

Monday, February 11, 2013

  Actual Average Record
Temperature  
Mean Temperature 26 °F -  
Max Temperature 44 °F 50 °F 64 °F (1971)
Min Temperature 9 °F 23 °F 4 °F (1965)
Degree Days  
Heating Degree Days 38    
Moisture  
Dew Point 11 °F    
Average Humidity 57    
Maximum Humidity 84    
Minimum Humidity 28    
Precipitation  
Precipitation 0.00 in - - ()
Sea Level Pressure  
Sea Level Pressure 30.28 in    
Wind  
Wind Speed 3 mph (South)    
Max Wind Speed 8 mph    
Max Gust Speed -    
Visibility 10 miles    
Events      
Averages and records for this station are not official NWS values.
T = Trace of Precipitation, MM = Missing Value Source: NWS Daily Summary

Daily Weather History Graph

Daily Weather History Graph

Search for Another Location

Airport or City:

Trip Planner

Search our weather history database for the weather conditions in past years. The results will help you decide how hot, cold, wet, or windy it might be!

Date:

Astronomy

Feb. 11, 2013 Rise Set
Actual Time 6:51 AM PST 5:25 PM PST
Civil Twilight 6:23 AM PST 5:53 PM PST
Nautical Twilight 5:51 AM PST 6:25 PM PST
Astronomical Twilight 5:20 AM PST 6:57 PM PST
Moon 7:18 AM PST (2/11) 7:27 PM PST (2/11)
Length of Visible Light 11h 30m
Length of Day
10h 34m
Waxing Crescent, 3% of the Moon is Illuminated
Feb 11
Waxing Crescent
Feb 17
First Quarter
Feb 25
Full
Mar 4
Last Quarter
Mar 11
New

Hourly Weather History & Observations

Time (PST) Temp. Windchill Dew Point Humidity Pressure Visibility Wind Dir Wind Speed Gust Speed Precip Events Conditions
12:53 AM 21.9 °F 14.5 °F 12.9 °F 68% 30.20 in 10.0 mi West 5.8 mph - N/A   Scattered Clouds
1:53 AM 19.9 °F 14.9 °F 12.9 °F 74% 30.21 in 10.0 mi NW 3.5 mph - N/A   Clear
2:53 AM 17.1 °F - 10.0 °F 74% 30.21 in 10.0 mi Calm Calm - N/A   Clear
3:53 AM 14.0 °F - 9.0 °F 80% 30.22 in 10.0 mi Calm Calm - N/A   Clear
4:53 AM 9.0 °F - 5.0 °F 84% 30.25 in 10.0 mi Calm Calm - N/A   Clear
5:53 AM 14.0 °F 8.2 °F 9.0 °F 80% 30.26 in 10.0 mi NNE 3.5 mph - N/A   Clear
6:53 AM 10.9 °F - 6.1 °F 81% 30.30 in 10.0 mi Calm Calm - N/A   Clear
7:53 AM 17.1 °F - 10.0 °F 74% 30.31 in 10.0 mi Calm Calm - N/A   Clear
8:53 AM 27.0 °F - 15.1 °F 61% 30.30 in 10.0 mi Calm Calm - N/A   Clear
9:53 AM 33.1 °F - 16.0 °F 50% 30.31 in 10.0 mi Calm Calm - N/A   Clear
10:53 AM 37.0 °F 31.6 °F 16.0 °F 42% 30.29 in 10.0 mi South 6.9 mph - N/A   Clear
11:53 AM 41.0 °F 37.1 °F 16.0 °F 36% 30.27 in 10.0 mi SSW 5.8 mph - N/A   Clear
12:53 PM 41.0 °F 37.1 °F 15.1 °F 35% 30.25 in 10.0 mi West 5.8 mph - N/A   Clear
1:53 PM 42.1 °F - 15.1 °F 34% 30.24 in 10.0 mi Calm Calm - N/A   Clear
2:53 PM 44.1 °F 42.5 °F 14.0 °F 30% 30.25 in 10.0 mi Variable 3.5 mph - N/A   Clear
3:53 PM 44.1 °F 41.5 °F 12.9 °F 28% 30.26 in 10.0 mi Variable 4.6 mph - N/A   Clear
4:53 PM 42.1 °F 37.1 °F 12.9 °F 31% 30.28 in 10.0 mi SSE 8.1 mph - N/A   Clear
5:53 PM 32.0 °F 25.6 °F 10.0 °F 40% 30.31 in 10.0 mi SSE 6.9 mph - N/A   Clear
6:53 PM 30.9 °F - 12.0 °F 46% 30.34 in 10.0 mi Calm Calm - N/A   Clear
8:53 PM 21.9 °F - 10.0 °F 60% 30.34 in 10.0 mi Calm Calm - N/A   Clear
9:53 PM 19.9 °F 12.1 °F 9.0 °F 62% 30.35 in 10.0 mi ENE 5.8 mph - N/A   Clear
10:53 PM 18.0 °F - 9.0 °F 68% 30.35 in 10.0 mi Calm Calm - N/A   Clear
11:53 PM 16.0 °F 10.4 °F 5.0 °F 62% 30.36 in 10.0 mi ESE 3.5 mph - N/A   Clear